GLENN Weather Reports


time (UTC)temp
C
wind
direction
speed
KPH
gust
KPH
rain 1hr
cm
rain 24hr
cm
rain mn
cm
humidity
%
barometer
mb
20260504010028 21 352 1.6 6.4 0.00 0.00 0.00 26 1010.6
20260504004517 21 325 0.0 6.4 0.00 0.00 0.00 25 1010.7
20260504003021 20 281 3.2 14.5 0.00 0.00 0.00 27 1010.8
20260504001508 20 289 6.4 12.9 0.00 0.00 0.00 24 1011.0
20260504000018 21 325 4.8 17.7 0.00 0.00 0.00 24 1011.1
20260503234515 21 299 8.0 17.7 0.00 0.00 0.00 24 1011.2
20260503233021 20 337 8.0 20.9 0.00 0.00 0.00 24 1011.3
20260503231507 21 313 6.4 14.5 0.00 0.00 0.00 24 1011.5
20260503230008 20 281 4.8 12.9 0.00 0.00 0.00 25 1011.7
20260503224513 20 276 11.3 17.7 0.00 0.00 0.00 26 1011.9
20260503223020 21 238 12.9 25.7 0.00 0.00 0.00 28 1012.1
20260503221518 20 280 11.3 24.1 0.00 0.00 0.00 30 1012.3
20260503220008 20 288 6.4 11.3 0.00 0.00 0.00 31 1012.7
20260503214517 20 352 6.4 16.1 0.00 0.00 0.00 27 1013.0
20260503213015 20 273 3.2 14.5 0.00 0.00 0.00 27 1013.2
20260503211522 19 234 11.3 22.5 0.00 0.00 0.00 35 1013.5
20260503210023 19 171 6.4 14.5 0.00 0.00 0.00 31 1013.7
20260503204508 19 311 3.2 11.3 0.00 0.00 0.00 30 1014.0
20260503203035 18 302 11.3 19.3 0.00 0.00 0.00 32 1014.3
20260503201522 18 238 4.8 12.9 0.00 0.00 0.00 34 1014.5
20260503200026 18 319 11.3 19.3 0.00 0.00 0.00 32 1014.7
20260503194535 18 247 9.7 19.3 0.00 0.00 0.00 32 1014.8
20260503193015 17 296 9.7 17.7 0.00 0.00 0.00 35 1015.1
20260503191518 18 345 4.8 8.0 0.00 0.00 0.00 35 1015.4
20260503190035 18 329 4.8 8.0 0.00 0.00 0.00 34 1015.6
20260503184526 17 329 4.8 11.3 0.00 0.00 0.00 35 1015.7
20260503183023 17 348 3.2 12.9 0.00 0.00 0.00 37 1015.8
20260503181527 17 302 3.2 11.3 0.00 0.00 0.00 40 1016.0
20260503174525 16 56 1.6 9.7 0.00 0.00 0.00 43 1016.3
20260503173024 16 9 3.2 9.7 0.00 0.00 0.00 43 1016.5
20260503171514 15 290 3.2 9.7 0.00 0.00 0.00 44 1016.6
20260503081529 8 98 3.2 6.4 0.00 0.00 0.00 59 1017.1
20260503071529 9 136 6.4 11.3 0.00 0.00 0.00 55 1017.3
20260503054526 11 268 0.0 3.2 0.00 0.00 0.00 48 1016.9
20260503053017 12 61 1.6 8.0 0.00 0.00 0.00 45 1016.8
20260503051512 12 75 0.0 8.0 0.00 0.00 0.00 47 1016.8
20260503050028 12 304 0.0 3.2 0.00 0.00 0.00 45 1016.6
20260503044518 13 292 3.2 14.5 0.00 0.00 0.00 44 1016.7
20260503043025 13 63 6.4 11.3 0.00 0.00 0.00 40 1016.6
20260503041506 13 70 4.8 11.3 0.00 0.00 0.00 43 1016.6
20260503040024 13 54 6.4 9.7 0.00 0.00 0.00 41 1016.6
20260503034514 14 54 4.8 12.9 0.00 0.00 0.00 41 1016.5
20260503033022 15 59 6.4 14.5 0.00 0.00 0.00 38 1016.3
20260503031528 15 105 6.4 22.5 0.00 0.00 0.00 37 1016.1
20260503030008 15 35 3.2 17.7 0.00 0.00 0.00 35 1015.9
20260503024514 15 107 12.9 16.1 0.00 0.00 0.00 34 1015.6
20260503023020 16 123 1.6 25.7 0.00 0.00 0.00 31 1015.4
20260503021525 16 120 11.3 16.1 0.00 0.00 0.00 33 1015.2
20260503020027 17 335 0.0 3.2 0.00 0.00 0.00 29 1015.2
20260503014510 17 147 1.6 3.2 0.00 0.00 0.00 28 1015.2
20260503013028 18 291 0.0 1.6 0.00 0.00 0.00 29 1015.2
20260503011523 19 352 0.0 3.2 0.00 0.00 0.00 22 1015.3